Back to catalog

ARIANE 44LP DEB

LostGTO
NORAD 33545·DEBRIS·🇫🇷 France

Launched Dec 11, 1988 from Guiana Space Centre

Loading…

TLE

StaleSource: Space-Track

Epoch: Jul 24, 2025, 14:25 UTC

1 33545U 88109U   25205.60089755  .00000016  00000-0  64305-3 0  9998
2 33545   6.4979 200.1691 7127386 131.1428 316.5564  2.38228893196843

Track ARIANE 44LP DEB in real time with AllMySat

Download on the App Store